ELEKTRO-L 3

Last updated on Jan. 17, 2021, 6:29 a.m. UTC

1 44903U 19095A   21016.76091028 -.00000102  00000-0  00000-0 0  9991
2 44903   0.0142  57.9488 0000103 344.0227  64.4122  1.00271924  3891
UTC
Height (km)
Latitude
Longitude
Inclination
Orbital Period
UTC large
Height (km)
Speed (km/s)
/
Latitude / Longitude
Inclination (degrees)
Orbital Period (minutes)
Azimuth
Elevation
Range (km)
Doppler Factor
iOS Compass Heading
iOS Angle

Next 30 passes for location: Hong Kong

Rise time Rise Azimuth (degrees) Set time Set Azimuth (degrees) Duration Max altitude (degrees)

No matching passes for this satellites